STARLINK-30422, 57826

Orbit data source: Space-Track

STARLINK-30422, 57826 is a payload satellite owned by SpaceX/Seattle (US) in LEO that was launched on Sat, 09 Sep 2023 UTC via an FALCON 9 launch vehicle from the Air Force Eastern Test Range (AFETR). Payload-class satellites include a variety of spacecraft equipped with specific instruments for various scientific and technological missions. These include communications satellites like Starlink; space stations such as the ISS; scientific satellites like the Hubble; Earth observation satellites from companies like Planet Labs, Umbra, and HawkEye 360; GPS; miniature CubeSats for education and research; and military/defense satellites.

Loading next visibility...
Identifier
57826, 2023-138U
Orbit
LEO
Country
Flag of USUS
Related business
Manufacturer
SpaceX/Seattle
Mission
Operational Commercial Communications
Bus & Motor
STARLINK V2M, Unknown motor
Mass
730 kg wet, ~700 kg dry
Launch date (UTC)
2023-09-09 (3 years ago)
Launch vehicle
FALCON 9
Launch site
Air Force Eastern Test Range (AFETR)
Object type
Payload
Rocket body
Debris
Shape & HBR
Box + 2 Pan, 17.7 m
Radar Cross Section
33.884 m², Large (>1 m²)

Expand to show TLE details & history
Last TLE update: 2 days ago

TLE from 2 days ago
0 STARLINK-30422
1 57826U 23138U   26170.99347101  .00003276  00000-0  12855-3 0  9997
2 57826  43.0046  16.4796 0001114 288.7455  71.3276 15.27574360154372
Epoch: 2026-06-19T23:50Z
TLE epoch observation values (Epoch: 2026-06-19T23:50:35.895Z)
Latitude
0.00001°
Longitude
110.61557°
Altitude
482.597 km
Speed
7.626 km/s
True Right ascension
01h 05m 55s
True Declination
0° 00' 00"
Sunlit
Object was in daylight at epoch
Visualization orbit readout
Latitude
Unknown
Longitude
Unknown
Altitude
Unknown
Speed
Unknown
Apparent Right ascension
Unknown
Apparent Declination
Unknown
Sunlit
N/A
Visualization observer readout
Local Sidereal Time
21:33:42
Azimuth
Unknown
Elevation
Unknown
Doppler factor
Unknown
Orbital elements
Apogee altitude
485.775 km
Perigee altitude
484.246 km
Semi-major axis
6,863.147 km
Eccentricity
0.00011
Inclination
43.0046°
RAAN
16.4796°
Arg. of periapsis
288.7455°
True anomaly
71.33969°
Mean anomaly
71.3276°
Eccentric anomaly
71.33365°
Mean motion
3.81732 °/min
Orbital period
94.31 mins
BSTAR
0.00012855
Loading maneuver chart data...
Computing Atmospheric mass density...
Loading historical data...
Loading historical data...
Loading historical data...
Loading historical data...
Loading historical data...
Loading historical data...
Loading historical data...

Documentation

Showing up to 5 results
|